Time,TemperatureF,DewpointF,PressureIn,WindDirection,WindDirectionDegrees,WindSpeedMPH,WindSpeedGustMPH,Humidity,HourlyPrecipIn,Conditions,Clouds,dailyrainin,SoftwareType,DateUTC
2013-07-13 00:08:00,77.7,52.8,29.85,West,264,0.0,0.0,42,0.00,,,0.00,Wunderground v.1.15,2013-07-13 06:08:00,
2013-07-13 00:18:00,77.6,52.7,29.85,WNW,303,0.0,0.0,42,0.00,,,0.00,Wunderground v.1.15,2013-07-13 06:18:00,
2013-07-13 00:23:00,77.3,53.1,29.85,WNW,303,0.0,0.0,43,0.00,,,0.00,Wunderground v.1.15,2013-07-13 06:23:00,
2013-07-13 00:33:00,76.5,53.6,29.85,WNW,303,0.0,0.0,45,0.00,,,0.00,Wunderground v.1.15,2013-07-13 06:33:00,
2013-07-13 00:43:00,77.2,53.6,29.86,SE,134,2.0,5.0,44,0.00,,,0.00,Wunderground v.1.15,2013-07-13 06:43:00,
2013-07-13 00:53:00,77.3,54.3,29.86,East,91,4.0,5.0,45,0.00,,,0.00,Wunderground v.1.15,2013-07-13 06:53:00,
2013-07-13 00:58:00,76.5,54.8,29.86,ESE,114,5.0,5.0,47,0.00,,,0.00,Wunderground v.1.15,2013-07-13 06:58:00,
2013-07-13 01:08:00,73.6,55.9,29.86,South,183,3.0,4.0,54,0.00,,,0.00,Wunderground v.1.15,2013-07-13 07:08:00,
2013-07-13 01:18:00,70.9,58.5,29.86,ESE,107,1.0,1.0,65,0.00,,,0.00,Wunderground v.1.15,2013-07-13 07:18:00,
2013-07-13 01:28:00,68.3,58.9,29.86,NE,42,0.0,0.0,72,0.00,,,0.01,Wunderground v.1.15,2013-07-13 07:28:00,
2013-07-13 01:33:00,68.6,56.8,29.86,NNE,28,1.0,5.0,66,0.00,,,0.01,Wunderground v.1.15,2013-07-13 07:33:00,
2013-07-13 01:43:00,69.8,57.5,29.85,NE,44,2.0,2.0,65,0.00,,,0.01,Wunderground v.1.15,2013-07-13 07:43:00,
2013-07-13 01:48:00,69.9,54.4,29.85,East,79,2.0,2.0,58,0.00,,,0.01,Wunderground v.1.15,2013-07-13 07:48:00,
2013-07-13 01:58:00,69.8,56.6,29.85,NE,46,0.0,1.0,63,0.00,,,0.02,Wunderground v.1.15,2013-07-13 07:58:00,
2013-07-13 02:08:00,69.8,57.5,29.84,NNE,17,1.0,1.0,65,0.00,,,0.03,Wunderground v.1.15,2013-07-13 08:08:00,
2013-07-13 02:13:00,69.7,56.1,29.84,NE,53,1.0,1.0,62,0.00,,,0.03,Wunderground v.1.15,2013-07-13 08:13:00,
2013-07-13 02:18:00,70.1,56.9,29.84,North,4,1.0,3.0,63,0.00,,,0.03,Wunderground v.1.15,2013-07-13 08:18:00,
2013-07-13 02:28:00,70.6,57.4,29.84,NE,51,1.0,1.0,63,0.00,,,0.03,Wunderground v.1.15,2013-07-13 08:28:00,
2013-07-13 02:38:00,70.6,56.9,29.84,NE,42,0.0,0.0,62,0.00,,,0.03,Wunderground v.1.15,2013-07-13 08:38:00,
2013-07-13 02:43:00,70.9,57.2,29.84,NE,35,0.0,0.0,62,0.00,,,0.03,Wunderground v.1.15,2013-07-13 08:43:00,
2013-07-13 02:53:00,71.1,58.7,29.84,West,271,0.0,0.0,65,0.00,,,0.03,Wunderground v.1.15,2013-07-13 08:53:00,
2013-07-13 02:58:00,70.7,58.4,29.84,West,269,0.0,1.0,65,0.00,,,0.03,Wunderground v.1.15,2013-07-13 08:58:00,
2013-07-13 03:08:00,70.5,58.2,29.84,NW,318,0.0,0.0,65,0.00,,,0.03,Wunderground v.1.15,2013-07-13 09:08:00,
2013-07-13 03:18:00,70.5,57.7,29.84,NNW,329,0.0,0.0,64,0.00,,,0.03,Wunderground v.1.15,2013-07-13 09:18:00,
2013-07-13 03:28:00,70.4,57.2,29.84,NNW,342,0.0,0.0,63,0.00,,,0.03,Wunderground v.1.15,2013-07-13 09:28:00,
2013-07-13 03:38:00,69.9,58.0,29.84,NNW,342,0.0,0.0,66,0.00,,,0.03,Wunderground v.1.15,2013-07-13 09:38:00,
2013-07-13 03:48:00,69.0,58.8,29.84,NNW,340,0.0,0.0,70,0.00,,,0.03,Wunderground v.1.15,2013-07-13 09:48:00,
2013-07-13 03:58:00,69.0,58.4,29.83,NNW,342,0.0,0.0,69,0.00,,,0.03,Wunderground v.1.15,2013-07-13 09:58:00,
2013-07-13 04:08:00,68.3,58.5,29.84,SSE,150,0.0,1.0,71,0.00,,,0.03,Wunderground v.1.15,2013-07-13 10:08:00,
2013-07-13 04:13:00,68.5,59.1,29.85,South,191,1.0,1.0,72,0.00,,,0.03,Wunderground v.1.15,2013-07-13 10:13:00,
2013-07-13 04:18:00,68.4,59.0,29.84,South,190,1.0,1.0,72,0.00,,,0.03,Wunderground v.1.15,2013-07-13 10:18:00,
2013-07-13 04:28:00,68.5,58.7,29.85,ESE,123,0.0,1.0,71,0.00,,,0.03,Wunderground v.1.15,2013-07-13 10:28:00,
2013-07-13 04:33:00,68.8,59.0,29.85,SE,134,1.0,1.0,71,0.00,,,0.03,Wunderground v.1.15,2013-07-13 10:33:00,
2013-07-13 04:43:00,69.0,58.8,29.85,SSE,150,1.0,2.0,70,0.00,,,0.03,Wunderground v.1.15,2013-07-13 10:43:00,
2013-07-13 04:48:00,69.3,58.7,29.85,SE,136,2.0,3.0,69,0.00,,,0.03,Wunderground v.1.15,2013-07-13 10:48:00,
2013-07-13 04:58:00,69.2,58.2,29.86,SSE,155,2.0,2.0,68,0.00,,,0.03,Wunderground v.1.15,2013-07-13 10:58:00,
2013-07-13 05:08:00,69.2,59.0,29.86,SE,136,2.0,2.0,70,0.00,,,0.03,Wunderground v.1.15,2013-07-13 11:08:00,
2013-07-13 05:13:00,69.2,59.4,29.86,SE,131,2.0,2.0,71,0.00,,,0.03,Wunderground v.1.15,2013-07-13 11:13:00,
2013-07-13 05:23:00,69.1,59.7,29.87,SE,134,2.0,2.0,72,0.00,,,0.03,Wunderground v.1.15,2013-07-13 11:23:00,
2013-07-13 05:33:00,69.0,60.0,29.87,ESE,114,2.0,2.0,73,0.00,,,0.03,Wunderground v.1.15,2013-07-13 11:33:00,
2013-07-13 05:38:00,69.0,60.0,29.87,East,100,1.0,1.0,73,0.00,,,0.03,Wunderground v.1.15,2013-07-13 11:38:00,
2013-07-13 05:43:00,68.9,59.9,29.86,ESE,113,0.0,1.0,73,0.00,,,0.03,Wunderground v.1.15,2013-07-13 11:43:00,
2013-07-13 05:48:00,68.9,59.9,29.86,ESE,119,0.0,0.0,73,0.00,,,0.03,Wunderground v.1.15,2013-07-13 11:48:00,
2013-07-13 05:58:00,68.9,59.5,29.86,ESE,107,0.0,0.0,72,0.00,,,0.03,Wunderground v.1.15,2013-07-13 11:58:00,
2013-07-13 06:08:00,68.9,59.1,29.86,ESE,119,0.0,0.0,71,0.00,,,0.03,Wunderground v.1.15,2013-07-13 12:08:00,
2013-07-13 06:18:00,68.9,58.7,29.86,ESE,119,0.0,0.0,70,0.00,,,0.03,Wunderground v.1.15,2013-07-13 12:18:00,
2013-07-13 06:23:00,68.8,58.6,29.86,ESE,118,0.0,0.0,70,0.00,,,0.03,Wunderground v.1.15,2013-07-13 12:23:00,
2013-07-13 06:33:00,68.4,58.6,29.86,ESE,118,0.0,0.0,71,0.00,,,0.03,Wunderground v.1.15,2013-07-13 12:33:00,
2013-07-13 06:43:00,68.1,58.7,29.86,ESE,119,0.0,0.0,72,0.00,,,0.03,Wunderground v.1.15,2013-07-13 12:43:00,
2013-07-13 06:53:00,68.3,59.3,29.87,ESE,120,0.0,0.0,73,0.00,,,0.03,Wunderground v.1.15,2013-07-13 12:53:00,
2013-07-13 06:58:00,68.4,59.4,29.86,ESE,120,0.0,0.0,73,0.00,,,0.03,Wunderground v.1.15,2013-07-13 12:58:00,
2013-07-13 07:08:00,68.7,58.5,29.87,ESE,120,0.0,0.0,70,0.00,,,0.03,Wunderground v.1.15,2013-07-13 13:08:00,
2013-07-13 07:13:00,69.2,59.4,29.87,ESE,120,0.0,0.0,71,0.00,,,0.03,Wunderground v.1.15,2013-07-13 13:13:00,
2013-07-13 07:23:00,70.8,59.3,29.87,NW,322,0.0,1.0,67,0.00,,,0.03,Wunderground v.1.15,2013-07-13 13:23:00,
2013-07-13 07:33:00,72.4,59.1,29.87,North,354,1.0,1.0,63,0.00,,,0.03,Wunderground v.1.15,2013-07-13 13:33:00,
2013-07-13 07:38:00,72.8,59.0,29.87,NNW,339,1.0,1.0,62,0.00,,,0.03,Wunderground v.1.15,2013-07-13 13:38:00,
2013-07-13 07:48:00,73.3,58.6,29.88,North,4,1.0,1.0,60,0.00,,,0.03,Wunderground v.1.15,2013-07-13 13:48:00,
2013-07-13 07:53:00,73.5,57.3,29.87,NW,320,1.0,1.0,57,0.00,,,0.03,Wunderground v.1.15,2013-07-13 13:53:00,
2013-07-13 07:58:00,73.9,57.7,29.88,North,359,1.0,1.0,57,0.00,,,0.03,Wunderground v.1.15,2013-07-13 13:58:00,
2013-07-13 08:08:00,74.4,57.7,29.88,NW,307,1.0,1.0,56,0.00,,,0.03,Wunderground v.1.15,2013-07-13 14:08:00,
2013-07-13 08:18:00,74.9,58.1,29.89,NNW,345,1.0,2.0,56,0.00,,,0.03,Wunderground v.1.15,2013-07-13 14:18:00,
2013-07-13 08:28:00,75.3,58.0,29.89,North,358,1.0,1.0,55,0.00,,,0.03,Wunderground v.1.15,2013-07-13 14:28:00,
2013-07-13 08:33:00,75.4,58.6,29.89,NW,322,1.0,2.0,56,0.00,,,0.03,Wunderground v.1.15,2013-07-13 14:33:00,
2013-07-13 08:38:00,75.6,58.8,29.89,WSW,243,2.0,3.0,56,0.00,,,0.03,Wunderground v.1.15,2013-07-13 14:38:00,
2013-07-13 08:48:00,75.9,58.6,29.89,NW,326,2.0,2.0,55,0.00,,,0.03,Wunderground v.1.15,2013-07-13 14:48:00,
2013-07-13 08:53:00,75.9,58.1,29.89,NNW,342,3.0,3.0,54,0.00,,,0.03,Wunderground v.1.15,2013-07-13 14:53:00,
2013-07-13 08:58:00,76.1,57.2,29.89,NNE,15,3.0,4.0,52,0.00,,,0.03,Wunderground v.1.15,2013-07-13 14:58:00,
2013-07-13 09:08:00,76.7,57.7,29.89,NW,321,2.0,2.0,52,0.00,,,0.03,Wunderground v.1.15,2013-07-13 15:08:00,
2013-07-13 09:13:00,76.9,57.4,29.90,NW,315,1.0,3.0,51,0.00,,,0.03,Wunderground v.1.15,2013-07-13 15:13:00,
2013-07-13 09:23:00,77.0,56.4,29.89,NW,316,2.0,3.0,49,0.00,,,0.03,Wunderground v.1.15,2013-07-13 15:23:00,
2013-07-13 09:28:00,77.3,56.6,29.89,North,350,1.0,1.0,49,0.00,,,0.03,Wunderground v.1.15,2013-07-13 15:28:00,
2013-07-13 09:38:00,78.6,56.7,29.89,SSW,207,1.0,1.0,47,0.00,,,0.03,Wunderground v.1.15,2013-07-13 15:38:00,
2013-07-13 09:48:00,80.1,56.2,29.89,West,278,1.0,1.0,44,0.00,,,0.03,Wunderground v.1.15,2013-07-13 15:48:00,
2013-07-13 09:53:00,80.6,56.7,29.89,NNW,342,1.0,2.0,44,0.00,,,0.03,Wunderground v.1.15,2013-07-13 15:53:00,
2013-07-13 09:58:00,80.5,55.9,29.89,NW,317,2.0,2.0,43,0.00,,,0.03,Wunderground v.1.15,2013-07-13 15:58:00,
2013-07-13 10:08:00,81.2,55.3,29.89,SW,236,1.0,2.0,41,0.00,,,0.03,Wunderground v.1.15,2013-07-13 16:08:00,
2013-07-13 10:13:00,81.5,54.2,29.89,WSW,246,1.0,2.0,39,0.00,,,0.03,Wunderground v.1.15,2013-07-13 16:13:00,
2013-07-13 10:18:00,81.6,55.6,29.89,WSW,257,1.0,1.0,41,0.00,,,0.03,Wunderground v.1.15,2013-07-13 16:18:00,
2013-07-13 10:28:00,83.2,54.2,29.89,SSE,150,1.0,1.0,37,0.00,,,0.03,Wunderground v.1.15,2013-07-13 16:28:00,
2013-07-13 10:38:00,83.6,53.8,29.88,West,266,1.0,1.0,36,0.00,,,0.03,Wunderground v.1.15,2013-07-13 16:38:00,
2013-07-13 10:48:00,84.1,54.3,29.88,WSW,253,2.0,2.0,36,0.00,,,0.03,Wunderground v.1.15,2013-07-13 16:48:00,
2013-07-13 10:53:00,83.8,54.7,29.88,WNW,300,1.0,2.0,37,0.00,,,0.03,Wunderground v.1.15,2013-07-13 16:53:00,
2013-07-13 10:58:00,84.2,53.6,29.88,West,269,1.0,1.0,35,0.00,,,0.03,Wunderground v.1.15,2013-07-13 16:58:00,
2013-07-13 11:08:00,85.0,54.3,29.88,West,264,1.0,1.0,35,0.00,,,0.03,Wunderground v.1.15,2013-07-13 17:08:00,
2013-07-13 11:13:00,85.6,54.8,29.88,WSW,245,1.0,2.0,35,0.00,,,0.03,Wunderground v.1.15,2013-07-13 17:13:00,
2013-07-13 11:23:00,85.7,54.1,29.88,SE,141,1.0,3.0,34,0.00,,,0.03,Wunderground v.1.15,2013-07-13 17:23:00,
2013-07-13 11:28:00,85.7,54.1,29.88,SSW,203,2.0,2.0,34,0.00,,,0.03,Wunderground v.1.15,2013-07-13 17:28:00,
2013-07-13 11:38:00,85.6,54.0,29.87,West,268,3.0,4.0,34,0.00,,,0.03,Wunderground v.1.15,2013-07-13 17:38:00,
2013-07-13 11:48:00,85.9,54.3,29.87,SSW,212,3.0,3.0,34,0.00,,,0.03,Wunderground v.1.15,2013-07-13 17:48:00,
2013-07-13 11:58:00,86.3,53.8,29.86,SW,218,2.0,2.0,33,0.00,,,0.03,Wunderground v.1.15,2013-07-13 17:58:00,
2013-07-13 12:08:00,86.7,53.3,29.86,SW,229,3.0,3.0,32,0.00,,,0.03,Wunderground v.1.15,2013-07-13 18:08:00,
2013-07-13 12:13:00,86.7,53.3,29.85,WNW,287,3.0,4.0,32,0.00,,,0.03,Wunderground v.1.15,2013-07-13 18:13:00,
2013-07-13 12:23:00,86.2,52.9,29.85,SW,226,3.0,6.0,32,0.00,,,0.03,Wunderground v.1.15,2013-07-13 18:23:00,
2013-07-13 12:33:00,87.9,54.4,29.84,WSW,250,2.0,3.0,32,0.00,,,0.03,Wunderground v.1.15,2013-07-13 18:33:00,
2013-07-13 12:38:00,88.3,53.8,29.85,West,278,1.0,3.0,31,0.00,,,0.03,Wunderground v.1.15,2013-07-13 18:38:00,
2013-07-13 12:48:00,88.1,52.8,29.84,SSW,197,3.0,3.0,30,0.00,,,0.03,Wunderground v.1.15,2013-07-13 18:48:00,
2013-07-13 12:58:00,87.9,52.6,29.84,SSW,211,5.0,6.0,30,0.00,,,0.03,Wunderground v.1.15,2013-07-13 18:58:00,
2013-07-13 13:08:00,87.2,51.1,29.84,South,173,4.0,4.0,29,0.00,,,0.03,Wunderground v.1.15,2013-07-13 19:08:00,
2013-07-13 13:13:00,87.6,52.3,29.84,South,174,3.0,4.0,30,0.00,,,0.03,Wunderground v.1.15,2013-07-13 19:13:00,
2013-07-13 13:18:00,87.4,53.1,29.83,SE,142,2.0,5.0,31,0.00,,,0.03,Wunderground v.1.15,2013-07-13 19:18:00,
2013-07-13 13:28:00,86.2,52.9,29.83,SSE,152,3.0,5.0,32,0.00,,,0.03,Wunderground v.1.15,2013-07-13 19:28:00,
2013-07-13 13:38:00,87.6,52.3,29.83,WSW,246,3.0,3.0,30,0.00,,,0.03,Wunderground v.1.15,2013-07-13 19:38:00,
2013-07-13 13:48:00,88.7,53.3,29.82,East,92,4.0,4.0,30,0.00,,,0.03,Wunderground v.1.15,2013-07-13 19:48:00,
2013-07-13 13:53:00,88.8,53.4,29.82,ENE,70,2.0,4.0,30,0.00,,,0.03,Wunderground v.1.15,2013-07-13 19:53:00,
2013-07-13 13:58:00,89.6,53.1,29.81,NNE,27,1.0,2.0,29,0.00,,,0.03,Wunderground v.1.15,2013-07-13 19:58:00,
2013-07-13 14:08:00,90.2,53.6,29.81,SSE,160,3.0,6.0,29,0.00,,,0.03,Wunderground v.1.15,2013-07-13 20:08:00,
2013-07-13 14:13:00,90.3,52.8,29.81,SE,131,3.0,6.0,28,0.00,,,0.03,Wunderground v.1.15,2013-07-13 20:13:00,
2013-07-13 14:18:00,90.2,53.6,29.80,East,85,2.0,2.0,29,0.00,,,0.03,Wunderground v.1.15,2013-07-13 20:18:00,
2013-07-13 14:23:00,91.4,53.7,29.80,ESE,103,1.0,2.0,28,0.00,,,0.03,Wunderground v.1.15,2013-07-13 20:23:00,
2013-07-13 14:28:00,91.9,52.1,29.80,SE,139,1.0,1.0,26,0.00,,,0.03,Wunderground v.1.15,2013-07-13 20:28:00,
2013-07-13 14:33:00,91.6,51.9,29.80,SE,136,4.0,4.0,26,0.00,,,0.03,Wunderground v.1.15,2013-07-13 20:33:00,
2013-07-13 14:43:00,91.6,52.9,29.79,SE,138,3.0,5.0,27,0.00,,,0.03,Wunderground v.1.15,2013-07-13 20:43:00,
2013-07-13 14:53:00,91.1,51.4,29.79,NW,309,4.0,4.0,26,0.00,,,0.03,Wunderground v.1.15,2013-07-13 20:53:00,
2013-07-13 14:58:00,91.6,51.9,29.79,South,183,3.0,3.0,26,0.00,,,0.03,Wunderground v.1.15,2013-07-13 20:58:00,
2013-07-13 15:08:00,92.2,52.4,29.78,South,180,2.0,3.0,26,0.00,,,0.03,Wunderground v.1.15,2013-07-13 21:08:00,
2013-07-13 15:13:00,93.0,50.9,29.78,ESE,118,2.0,10.0,24,0.00,,,0.03,Wunderground v.1.15,2013-07-13 21:13:00,
2013-07-13 15:23:00,92.2,50.2,29.78,SSE,156,4.0,6.0,24,0.00,,,0.03,Wunderground v.1.15,2013-07-13 21:23:00,
2013-07-13 15:33:00,92.1,51.2,29.78,SSE,167,5.0,7.0,25,0.00,,,0.03,Wunderground v.1.15,2013-07-13 21:33:00,
2013-07-13 15:38:00,91.7,49.8,29.78,SE,135,5.0,5.0,24,0.00,,,0.03,Wunderground v.1.15,2013-07-13 21:38:00,
2013-07-13 15:48:00,90.9,51.3,29.77,SW,218,1.0,1.0,26,0.00,,,0.03,Wunderground v.1.15,2013-07-13 21:48:00,
2013-07-13 15:58:00,90.9,51.3,29.77,ESE,119,4.0,4.0,26,0.00,,,0.03,Wunderground v.1.15,2013-07-13 21:58:00,
2013-07-13 16:08:00,92.1,50.1,29.76,South,183,3.0,3.0,24,0.00,,,0.03,Wunderground v.1.15,2013-07-13 22:08:00,
2013-07-13 16:18:00,93.4,50.1,29.76,SW,219,2.0,6.0,23,0.00,,,0.03,Wunderground v.1.15,2013-07-13 22:18:00,
2013-07-13 16:23:00,93.9,49.3,29.76,SSW,211,2.0,6.0,22,0.00,,,0.03,Wunderground v.1.15,2013-07-13 22:23:00,
2013-07-13 16:33:00,93.7,49.1,29.76,SSE,165,3.0,3.0,22,0.00,,,0.03,Wunderground v.1.15,2013-07-13 22:33:00,
2013-07-13 16:43:00,92.3,48.0,29.75,SSE,152,4.0,5.0,22,0.00,,,0.03,Wunderground v.1.15,2013-07-13 22:43:00,
2013-07-13 16:53:00,91.6,48.6,29.75,SSW,205,6.0,7.0,23,0.00,,,0.03,Wunderground v.1.15,2013-07-13 22:53:00,
2013-07-13 16:58:00,92.1,49.0,29.75,WSW,249,3.0,4.0,23,0.00,,,0.03,Wunderground v.1.15,2013-07-13 22:58:00,
2013-07-13 17:08:00,93.1,48.6,29.75,ESE,105,2.0,2.0,22,0.00,,,0.03,Wunderground v.1.15,2013-07-13 23:08:00,
2013-07-13 17:13:00,93.8,48.0,29.75,SSE,163,2.0,3.0,21,0.00,,,0.03,Wunderground v.1.15,2013-07-13 23:13:00,
2013-07-13 17:23:00,93.4,47.6,29.75,SE,124,3.0,6.0,21,0.00,,,0.03,Wunderground v.1.15,2013-07-13 23:23:00,
2013-07-13 17:33:00,93.6,46.5,29.74,SE,138,2.0,3.0,20,0.00,,,0.03,Wunderground v.1.15,2013-07-13 23:33:00,
2013-07-13 17:38:00,92.8,48.4,29.75,SE,137,3.0,5.0,22,0.00,,,0.03,Wunderground v.1.15,2013-07-13 23:38:00,
2013-07-13 17:43:00,91.3,49.4,29.75,SE,137,5.0,5.0,24,0.00,,,0.03,Wunderground v.1.15,2013-07-13 23:43:00,
2013-07-13 17:48:00,90.5,49.9,29.75,ESE,120,6.0,6.0,25,0.00,,,0.03,Wunderground v.1.15,2013-07-13 23:48:00,
2013-07-13 17:58:00,90.0,49.5,29.75,ESE,117,4.0,7.0,25,0.00,,,0.03,Wunderground v.1.15,2013-07-13 23:58:00,
2013-07-13 18:08:00,90.2,48.5,29.74,ESE,122,5.0,5.0,24,0.00,,,0.03,Wunderground v.1.15,2013-07-14 00:08:00,
2013-07-13 18:13:00,90.4,49.8,29.74,ESE,110,4.0,5.0,25,0.00,,,0.03,Wunderground v.1.15,2013-07-14 00:13:00,
2013-07-13 18:23:00,90.4,48.7,29.74,SSE,149,3.0,4.0,24,0.00,,,0.03,Wunderground v.1.15,2013-07-14 00:23:00,
2013-07-13 18:28:00,90.2,48.5,29.75,SSW,212,3.0,3.0,24,0.00,,,0.03,Wunderground v.1.15,2013-07-14 00:28:00,
2013-07-13 18:38:00,90.1,48.4,29.75,WNW,293,1.0,2.0,24,0.00,,,0.03,Wunderground v.1.15,2013-07-14 00:38:00,
2013-07-13 18:43:00,89.2,50.8,29.75,WSW,238,3.0,4.0,27,0.00,,,0.03,Wunderground v.1.15,2013-07-14 00:43:00,
2013-07-13 18:53:00,88.6,51.3,29.75,North,8,4.0,10.0,28,0.00,,,0.03,Wunderground v.1.15,2013-07-14 00:53:00,
2013-07-13 18:58:00,87.8,50.6,29.75,WNW,303,5.0,5.0,28,0.00,,,0.03,Wunderground v.1.15,2013-07-14 00:58:00,
2013-07-13 19:08:00,88.0,49.8,29.75,NW,326,5.0,7.0,27,0.00,,,0.03,Wunderground v.1.15,2013-07-14 01:08:00,
2013-07-13 19:13:00,88.1,49.9,29.75,NW,325,4.0,8.0,27,0.00,,,0.03,Wunderground v.1.15,2013-07-14 01:13:00,
2013-07-13 19:23:00,87.5,49.4,29.75,NW,309,5.0,8.0,27,0.00,,,0.03,Wunderground v.1.15,2013-07-14 01:23:00,
2013-07-13 19:28:00,87.1,50.0,29.75,NW,312,5.0,5.0,28,0.00,,,0.03,Wunderground v.1.15,2013-07-14 01:28:00,
2013-07-13 19:38:00,86.7,49.7,29.76,NNW,348,4.0,4.0,28,0.00,,,0.03,Wunderground v.1.15,2013-07-14 01:38:00,
2013-07-13 19:48:00,86.0,51.0,29.78,NNW,331,6.0,6.0,30,0.00,,,0.03,Wunderground v.1.15,2013-07-14 01:48:00,
2013-07-13 19:58:00,84.0,52.6,29.78,North,1,6.0,10.0,34,0.00,,,0.03,Wunderground v.1.15,2013-07-14 01:58:00,
2013-07-13 20:08:00,82.9,53.2,29.78,NNW,335,6.0,6.0,36,0.00,,,0.03,Wunderground v.1.15,2013-07-14 02:08:00,
2013-07-13 20:18:00,81.9,53.8,29.79,North,353,6.0,9.0,38,0.00,,,0.03,Wunderground v.1.15,2013-07-14 02:18:00,
2013-07-13 20:28:00,81.1,54.5,29.79,NNW,348,6.0,6.0,40,0.00,,,0.03,Wunderground v.1.15,2013-07-14 02:28:00,
2013-07-13 20:38:00,80.7,54.1,29.79,NE,39,7.0,7.0,40,0.00,,,0.03,Wunderground v.1.15,2013-07-14 02:38:00,
2013-07-13 20:48:00,80.7,53.4,29.79,NNW,337,6.0,7.0,39,0.00,,,0.03,Wunderground v.1.15,2013-07-14 02:48:00,
2013-07-13 20:53:00,80.9,52.2,29.79,North,5,6.0,7.0,37,0.00,,,0.03,Wunderground v.1.15,2013-07-14 02:53:00,
2013-07-13 20:58:00,81.1,52.4,29.79,NW,325,6.0,7.0,37,0.00,,,0.03,Wunderground v.1.15,2013-07-14 02:58:00,
2013-07-13 21:08:00,81.2,51.7,29.80,NNW,330,5.0,6.0,36,0.00,,,0.03,Wunderground v.1.15,2013-07-14 03:08:00,
2013-07-13 21:13:00,81.3,51.0,29.80,NNW,342,7.0,7.0,35,0.00,,,0.03,Wunderground v.1.15,2013-07-14 03:13:00,
2013-07-13 21:23:00,81.3,51.0,29.81,North,11,8.0,14.0,35,0.00,,,0.03,Wunderground v.1.15,2013-07-14 03:23:00,
2013-07-13 21:28:00,81.2,51.7,29.81,NNW,342,9.0,9.0,36,0.00,,,0.03,Wunderground v.1.15,2013-07-14 03:28:00,
2013-07-13 21:38:00,81.2,52.4,29.81,NNE,28,8.0,13.0,37,0.00,,,0.03,Wunderground v.1.15,2013-07-14 03:38:00,
2013-07-13 21:43:00,81.3,52.5,29.81,North,352,7.0,13.0,37,0.00,,,0.03,Wunderground v.1.15,2013-07-14 03:43:00,
2013-07-13 21:48:00,81.4,51.9,29.81,NNE,25,6.0,8.0,36,0.00,,,0.03,Wunderground v.1.15,2013-07-14 03:48:00,
2013-07-13 21:58:00,82.1,50.9,29.82,NNW,335,7.0,7.0,34,0.00,,,0.03,Wunderground v.1.15,2013-07-14 03:58:00,
2013-07-13 22:03:00,82.2,51.0,29.82,NE,39,7.0,7.0,34,0.00,,,0.03,Wunderground v.1.15,2013-07-14 04:03:00,
2013-07-13 22:08:00,82.3,50.3,29.82,NNE,23,6.0,6.0,33,0.00,,,0.03,Wunderground v.1.15,2013-07-14 04:08:00,
2013-07-13 22:13:00,82.5,50.5,29.82,ENE,65,6.0,6.0,33,0.00,,,0.03,Wunderground v.1.15,2013-07-14 04:13:00,
2013-07-13 22:18:00,82.5,50.5,29.83,NNE,21,4.0,4.0,33,0.00,,,0.03,Wunderground v.1.15,2013-07-14 04:18:00,
2013-07-13 22:23:00,82.5,50.5,29.83,NNE,23,2.0,4.0,33,0.00,,,0.03,Wunderground v.1.15,2013-07-14 04:23:00,
2013-07-13 22:33:00,82.3,50.3,29.85,SSE,161,2.0,9.0,33,0.00,,,0.03,Wunderground v.1.15,2013-07-14 04:33:00,
2013-07-13 22:43:00,80.0,55.5,29.85,SE,135,9.0,12.0,43,0.00,,,0.03,Wunderground v.1.15,2013-07-14 04:43:00,
2013-07-13 22:53:00,76.6,56.6,29.86,SSW,199,10.0,18.0,50,0.00,,,0.03,Wunderground v.1.15,2013-07-14 04:53:00,
2013-07-13 22:58:00,75.5,57.7,29.86,SSE,158,11.0,11.0,54,0.00,,,0.03,Wunderground v.1.15,2013-07-14 04:58:00,
2013-07-13 23:08:00,74.3,57.6,29.86,SSE,150,10.0,10.0,56,0.00,,,0.03,Wunderground v.1.15,2013-07-14 05:08:00,
2013-07-13 23:18:00,74.2,57.0,29.86,SE,143,7.0,7.0,55,0.00,,,0.03,Wunderground v.1.15,2013-07-14 05:18:00,
2013-07-13 23:23:00,74.4,56.7,29.86,ESE,113,6.0,7.0,54,0.00,,,0.03,Wunderground v.1.15,2013-07-14 05:23:00,
2013-07-13 23:33:00,75.3,55.4,29.86,SE,146,6.0,8.0,50,0.00,,,0.03,Wunderground v.1.15,2013-07-14 05:33:00,
2013-07-13 23:43:00,75.9,53.6,29.86,SE,130,7.0,9.0,46,0.00,,,0.03,Wunderground v.1.15,2013-07-14 05:43:00,
2013-07-13 23:48:00,75.9,52.4,29.85,SE,145,6.0,6.0,44,0.00,,,0.03,Wunderground v.1.15,2013-07-14 05:48:00,
2013-07-13 23:58:00,76.6,52.4,29.85,ENE,73,6.0,6.0,43,0.00,,,0.00,Wunderground v.1.15,2013-07-14 05:58:00,